Theta_e
352 357 366 365 365 366 363 363 363 365 366 367 367 367 365 364 363 364 363 363 363 362 362 362 361 361 362 362 360 361 361 360 359 360 359 356 354 355 359 360 359 355 360
355 357 365 366 366 365 364 363 363 365 364 365 366 366 364 364 364 365 363 363 361 361 361 362 361 361 362 360 360 361 360 360 360 359 358 357 354 360 359 359 359 357 359
356 359 360 366 366 363 363 363 362 365 363 364 363 363 364 364 364 362 362 361 361 361 361 362 361 361 360 359 359 361 361 361 361 360 358 347 347 360 359 360 359 359 359
356 360 361 365 364 362 362 362 364 366 367 363 360 361 364 364 362 361 358 362 361 362 362 362 362 361 361 360 359 360 360 360 361 359 350 345 349 360 359 359 358 359 359
356 359 361 367 365 363 362 361 363 365 365 364 359 360 364 363 363 362 357 359 361 361 361 361 361 360 360 360 359 359 360 360 361 354 349 343 349 358 359 359 359 359 358
355 358 365 365 364 362 361 362 362 364 364 366 360 360 361 363 363 362 357 358 358 358 360 361 360 359 358 357 357 356 357 359 355 350 350 354 350 359 359 359 359 359 358
354 357 363 366 366 365 364 362 361 365 363 364 364 359 361 364 363 362 359 355 356 358 357 360 359 358 358 358 357 355 357 358 350 349 352 350 351 361 359 359 358 359 355
355 358 361 366 365 364 364 363 362 364 363 363 364 361 360 363 363 362 361 356 352 355 358 358 357 358 357 356 357 356 356 356 350 351 350 351 358 359 359 358 359 358 357
358 359 360 360 360 363 366 364 363 365 365 363 364 363 360 360 361 360 359 359 357 355 356 357 356 357 356 356 355 355 356 358 347 350 352 352 360 360 358 360 359 358 358
358 358 358 358 357 357 357 364 363 365 365 363 364 364 363 361 359 360 362 360 358 358 357 357 356 356 355 354 354 355 356 357 347 348 352 354 361 360 359 358 358 358 357
354 355 355 355 355 356 357 359 363 364 365 364 362 364 362 348 346 348 358 358 358 357 357 357 356 354 353 353 354 354 356 347 345 345 346 356 361 360 359 359 358 358 359
349 352 354 354 355 355 359 355 356 357 355 354 355 354 350 347 345 348 354 357 358 357 357 357 356 355 353 350 348 353 346 344 344 344 342 355 359 360 360 359 358 359 359
349 351 352 353 354 354 355 352 352 351 353 352 352 350 347 347 342 344 345 350 346 354 349 350 351 350 349 347 347 345 346 344 344 344 343 355 358 358 358 359 359 358 358
346 349 352 353 353 352 352 351 350 351 352 352 352 350 345 340 339 339 340 343 343 344 346 345 343 346 345 344 346 347 347 344 342 345 343 352 358 358 356 358 358 357 357
344 347 350 352 351 351 352 351 350 351 353 353 351 351 349 343 340 342 336 340 341 341 340 340 339 345 345 344 347 346 347 346 343 344 343 352 354 359 356 357 357 356 357
344 345 348 350 351 350 350 349 350 349 350 350 349 351 350 347 343 343 343 342 345 344 343 343 341 343 344 346 346 347 347 344 345 344 344 346 353 352 353 356 357 358 357
344 345 346 347 349 348 348 348 348 348 349 346 348 349 349 347 345 344 343 343 345 345 345 344 345 344 345 345 345 346 345 346 344 344 345 344 347 351 352 352 356 358 358
344 343 345 348 346 346 348 347 347 346 347 347 347 348 348 347 346 344 343 343 345 346 346 345 344 341 341 342 342 343 346 347 347 346 345 344 343 346 350 353 355 358 357
341 341 343 345 343 343 346 346 347 347 348 347 347 347 348 348 347 344 344 343 345 346 344 344 343 340 339 340 344 343 347 347 348 348 344 343 342 347 347 355 358 359 358
339 339 341 343 342 343 344 344 346 347 348 348 347 346 347 347 347 345 344 344 345 347 344 344 342 342 340 341 347 345 344 347 347 345 343 344 341 346 347 349 352 353 359
338 338 338 340 340 342 341 341 343 344 347 349 349 349 346 345 345 344 344 346 348 348 347 344 342 341 340 344 341 339 340 345 346 346 344 341 341 343 344 345 346 347 353
339 337 338 340 340 342 343 343 344 343 345 347 350 349 347 346 345 344 344 344 345 345 345 345 344 339 340 342 337 335 329 337 344 344 345 341 340 343 343 343 342 342 343
340 337 337 340 341 342 340 340 340 343 345 344 343 342 341 346 346 346 345 345 345 346 344 345 343 340 337 340 341 336 326 327 333 341 343 342 340 339 340 343 340 343 343
340 340 340 341 342 341 341 339 338 337 336 339 337 340 339 340 344 350 347 347 346 346 345 343 345 342 341 336 342 343 338 334 327 327 336 342 342 341 338 337 336 339 343
341 340 341 342 341 341 340 340 337 336 338 340 337 338 340 343 346 348 348 348 347 347 346 344 344 343 342 340 336 337 339 337 334 330 327 333 339 342 343 341 340 337 338
342 343 342 341 340 340 339 338 337 336 334 334 334 335 336 337 342 345 348 347 347 347 346 344 345 343 342 341 340 339 337 332 333 330 328 330 335 337 343 343 343 343 343
Wind_Speed
8 8 17 20 20 20 21 20 19 18 18 19 19 19 18 17 16 15 14 13 13 11 11 10 10 10 11 13 12 14 14 14 14 15 16 15 15 15 13 15 13 10 14
13 11 19 20 20 19 19 19 19 18 19 18 18 18 19 17 16 15 14 13 12 12 11 11 11 11 14 13 13 14 15 15 14 13 15 15 15 13 13 13 13 10 14
14 13 14 19 19 20 19 18 19 19 19 18 18 18 19 17 16 15 14 14 12 12 13 12 11 12 14 13 13 13 14 12 13 14 13 5 6 13 14 14 13 13 13
14 12 13 18 19 20 18 18 19 18 19 17 16 17 17 17 16 14 12 13 13 13 12 12 13 12 12 12 13 13 13 12 15 14 5 5 6 13 13 13 13 12 12
14 10 13 18 18 19 18 17 17 17 18 17 16 17 16 17 16 14 10 12 12 11 13 12 13 13 12 12 11 11 11 11 13 7 5 6 4 10 12 11 12 12 11
12 10 16 19 20 19 19 17 17 16 18 17 16 16 16 16 16 13 11 11 11 11 10 12 13 12 12 12 11 9 8 11 10 5 5 7 5 13 12 11 11 12 11
11 10 14 18 18 17 17 17 17 16 17 15 17 16 16 15 14 13 11 10 10 10 10 10 12 12 12 11 10 10 10 13 5 5 5 5 4 11 12 11 10 11 12
12 10 10 18 18 17 16 17 17 16 16 15 14 16 14 14 15 13 12 11 9 8 10 9 9 10 11 11 10 7 9 11 6 5 6 5 7 10 12 12 10 11 12
12 10 9 10 14 18 16 17 16 16 16 15 14 14 13 12 12 12 11 11 11 10 8 7 8 8 9 10 9 8 8 12 5 4 5 4 11 12 13 12 12 11 10
11 10 8 8 8 8 8 16 16 15 16 15 14 14 14 13 10 10 10 9 9 9 9 8 7 6 5 7 7 8 6 12 4 3 3 4 11 13 12 11 11 12 11
9 9 8 7 6 6 5 9 14 15 15 15 14 14 10 4 4 7 9 11 10 9 9 9 7 5 5 5 5 6 8 3 3 2 2 10 11 14 13 12 12 12 12
12 9 8 8 8 6 6 5 6 6 4 5 5 5 4 4 3 5 8 11 11 10 10 9 8 6 4 4 2 5 2 3 3 2 2 8 11 13 13 12 12 13 12
13 9 9 9 7 7 6 4 3 2 3 3 6 5 4 3 3 2 2 3 3 7 3 5 4 2 4 2 2 4 3 3 3 2 4 9 12 11 13 13 12 11 11
14 13 11 11 10 8 4 4 4 4 4 3 4 6 4 3 3 3 3 4 3 2 4 3 2 4 4 3 5 4 7 4 3 2 4 10 11 11 10 12 12 12 12
14 14 14 12 11 9 8 5 5 5 5 5 4 5 4 4 4 3 4 4 4 3 3 3 4 4 5 5 4 4 5 5 5 3 3 12 12 12 12 13 12 12 12
13 14 14 14 13 11 9 8 7 5 5 4 4 5 6 4 4 4 3 4 4 3 3 4 4 4 4 4 5 5 4 4 4 5 4 5 15 14 15 12 14 13 13
15 13 15 15 14 13 12 10 7 7 6 5 6 6 6 6 5 4 4 4 4 3 4 3 3 3 3 3 4 4 4 4 4 4 4 3 7 16 15 16 14 14 14
14 15 14 14 14 14 14 10 7 6 6 5 4 5 6 7 6 5 4 4 4 3 2 2 3 3 3 3 3 4 4 3 5 4 5 4 4 4 11 16 15 14 14
16 16 15 14 15 14 12 9 9 7 6 5 4 6 7 8 6 5 4 4 4 3 3 3 3 3 3 3 3 4 4 3 3 4 5 5 5 4 3 12 14 14 16
13 15 16 13 14 13 8 6 4 6 7 6 7 6 6 5 6 4 3 5 4 3 3 3 4 3 2 3 3 3 2 2 4 5 5 5 5 5 5 5 7 7 14
12 11 17 15 12 10 6 7 8 9 6 5 6 8 6 5 5 5 4 5 4 4 3 4 3 4 4 2 3 1 2 4 4 5 6 4 5 5 5 5 4 3 6
11 14 14 16 13 13 9 5 3 3 2 1 2 3 5 6 7 7 6 5 5 3 4 5 4 2 2 4 3 2 1 0 2 5 6 7 7 7 7 7 6 6 5
11 14 14 15 12 8 7 5 4 4 3 2 1 2 3 4 5 5 6 5 5 4 4 4 4 5 4 2 4 4 2 4 2 2 5 7 7 6 7 8 8 8 7
5 7 8 7 11 9 10 7 8 9 6 5 3 3 3 5 5 6 7 7 6 4 5 4 4 3 3 4 2 3 1 3 3 2 1 5 6 8 9 7 8 10 9
6 9 9 8 8 9 9 8 7 5 4 4 6 8 8 5 5 5 6 6 4 5 6 6 4 5 4 3 3 2 2 1 1 3 3 3 3 6 7 8 8 8 10
7 8 11 12 10 11 10 7 8 7 6 5 4 4 4 4 4 5 5 4 4 5 6 5 5 6 5 4 3 3 3 3 3 3 2 2 4 4 6 7 7 7 7
Wind_Direction
164 158 153 142 136 133 130 126 125 122 118 116 116 116 116 122 126 126 126 128 123 120 124 125 116 114 117 117 124 118 115 114 110 109 107 108 108 112 111 113 107 107 106
145 152 150 143 138 134 132 129 128 127 124 120 119 121 123 127 128 129 123 120 121 124 126 118 116 122 112 115 120 124 123 121 117 115 110 111 116 118 116 112 107 111 109
146 148 150 142 140 140 136 134 133 132 131 128 127 127 129 128 124 125 122 122 126 125 127 121 121 119 120 123 123 131 127 123 118 118 109 92 108 110 122 121 120 123 114
144 148 147 143 146 144 141 140 138 140 134 130 130 130 131 132 129 127 123 129 129 125 127 126 125 118 122 126 130 131 127 116 119 110 88 104 124 117 123 119 118 119 117
142 140 149 147 149 146 145 144 142 140 133 135 132 134 134 134 138 131 129 131 127 128 126 126 125 125 128 129 134 131 137 118 119 96 101 109 111 123 124 118 125 120 114
140 142 154 153 152 151 149 148 148 149 137 138 136 137 141 143 142 143 137 135 134 133 134 135 125 126 132 136 134 132 155 133 115 109 116 126 115 130 135 132 137 125 124
141 150 152 155 156 157 152 152 154 158 142 144 141 143 148 142 145 145 143 142 140 133 138 142 136 132 134 137 139 132 143 139 128 127 112 120 155 145 138 138 141 131 128
144 154 157 156 161 161 162 154 163 156 146 149 150 147 152 147 150 153 149 144 152 145 143 152 143 139 136 143 146 148 155 148 138 139 138 143 147 144 149 142 144 141 142
149 153 159 158 166 168 168 160 166 155 155 155 154 151 151 156 157 154 155 156 158 164 160 164 160 154 145 146 155 162 181 180 148 146 155 149 152 153 152 150 154 149 144
149 155 150 155 164 161 172 164 170 162 161 158 159 157 158 164 171 161 164 170 175 176 174 179 179 165 166 154 146 152 182 156 157 171 152 153 159 160 160 156 154 154 149
152 158 145 138 142 145 158 173 170 169 166 162 165 169 161 142 167 177 175 185 185 192 193 193 200 201 195 165 172 160 154 141 191 169 162 161 172 168 166 162 164 162 157
166 162 154 143 154 151 166 186 169 175 155 162 158 167 148 162 173 187 196 198 196 204 207 205 207 210 205 122 217 188 129 190 175 188 191 192 176 172 170 168 174 176 158
168 167 169 156 158 161 171 164 150 155 168 174 172 171 168 167 186 243 223 232 214 216 227 218 212 214 157 169 184 162 191 204 195 203 197 209 183 186 174 176 178 178 165
175 178 178 173 169 177 162 172 170 171 181 193 188 174 167 189 209 226 199 212 224 217 219 212 205 231 165 175 208 199 191 188 180 190 206 208 190 184 198 186 185 177 177
181 184 183 177 179 178 175 179 180 190 194 187 179 199 179 186 214 218 210 195 217 202 201 194 211 228 176 192 221 228 183 181 185 194 201 214 208 178 201 206 192 179 185
184 190 183 183 183 180 185 181 189 188 197 180 189 205 198 192 198 197 190 204 199 198 201 204 209 208 199 175 207 215 186 182 198 188 190 222 195 192 212 207 196 190 193
192 186 188 190 184 183 188 191 186 197 193 192 201 208 198 194 198 194 200 208 218 188 217 208 227 187 188 188 227 178 168 186 196 187 172 208 184 202 212 203 203 195 193
190 187 192 188 193 190 191 188 190 194 193 195 210 199 204 199 186 191 197 211 213 180 183 210 205 198 198 194 179 186 199 195 176 178 167 173 174 193 205 206 200 197 197
194 187 192 195 192 194 194 187 181 190 197 186 213 215 195 200 185 196 203 211 211 182 185 196 212 179 178 193 203 191 186 197 185 167 168 177 180 191 179 203 197 198 203
203 192 194 194 197 191 185 177 174 178 207 170 199 220 176 188 190 195 213 229 207 216 207 187 200 199 170 188 205 155 187 199 169 174 180 190 172 188 179 195 198 197 209
173 189 193 191 193 178 177 176 186 191 181 179 195 192 198 194 179 194 216 229 214 225 211 198 184 192 204 138 101 305 234 198 193 184 182 185 177 193 180 183 182 181 210
181 185 197 199 186 190 184 181 144 145 175 161 157 165 190 204 193 209 206 211 219 215 222 208 178 168 176 172 142 122 193 222 211 192 181 196 199 195 196 191 185 189 199
186 179 191 193 185 181 145 127 96 93 76 92 168 74 285 231 217 213 219 214 213 202 216 205 184 172 185 170 205 152 138 211 136 152 193 194 188 196 200 202 198 203 203
176 152 151 160 171 164 152 159 165 182 167 160 223 123 264 249 243 230 218 220 209 197 210 200 183 179 166 188 205 217 246 162 160 136 171 187 192 200 203 203 203 206 206
159 155 141 146 155 157 173 172 177 174 172 161 191 178 236 245 245 253 241 229 216 199 212 192 196 190 193 163 180 141 171 192 132 134 179 178 189 203 205 204 204 206 211
162 161 162 166 164 164 180 179 182 192 170 150 175 195 216 229 236 254 257 239 224 207 211 192 194 194 192 189 179 191 172 172 183 156 145 183 193 206 196 203 204 208 209